Location: Newark
(33.6439°N, 114.9881°W)
Time: 03:48:25
(UTC+00:00)

Envisat - Visible Passes

Search period start: 21 March 2019 00:00
Search period end: 31 March 2019 00:00
Orbit: 764 x 766 km, 98.2° (Epoch: 20 March)

Date Brightness Start Highest point End Pass type
(mag) Time Alt. Az. Time Alt. Az. Time Alt. Az.
21 Mar 3.3 02:31:28 10° S 02:36:31 73° WSW 02:41:36 10° NNW visible
22 Mar 5.9 03:36:00 10° SW 03:39:03 16° W 03:42:10 10° NW visible
23 Mar 4.5 02:57:24 10° SSW 03:02:06 38° W 03:06:50 10° NNW visible
24 Mar 3.0 02:20:15 10° SSE 02:25:19 87° ENE 02:30:25 10° NNW visible
25 Mar 5.6 03:24:00 10° SW 03:27:46 21° W 03:31:33 10° NW visible
26 Mar 4.0 02:45:57 10° S 02:50:51 50° W 02:55:48 10° NNW visible
27 Mar 6.2 03:52:23 10° WSW 03:53:31 11° W 03:54:40 10° WNW visible
28 Mar 5.2 03:12:13 10° SSW 03:16:29 27° W 03:20:45 10° NW visible
29 Mar 3.5 02:34:36 10° S 02:39:37 66° W 02:44:41 10° NNW visible
30 Mar 5.9 03:39:29 10° SW 03:42:12 14° W 03:44:55 10° WNW visible
